Volver al catálogo

STARLINK-34513

ActivoComunicacionesVLEO
NORAD 64609·PAYLOAD·🇺🇸 United States

Lanzado Jun 25, 2025 desde Cape Canaveral Space Force Station

Loading…

Próximos Pases (próximas 24 horas)

TLE

ActualizadoSource: CelesTrak SupGP

Época: Sep 14, 2026, 20:43 UTC

1 64609C 25137R   26257.86368056  .00006606  00000+0  19506-3 0  2575
2 64609  53.1580 174.3254 0001476 102.7460 110.0352 15.34404877    19

Sigue STARLINK-34513 en tiempo real con AllMySat

Download on the App Store